Total_Precipitation_Accumulation
0.00 0.01 0.08 0.24 0.74 0.93 0.92 0.55 0.42 0.34 0.33 0.36 0.43 0.41 0.39 0.43 0.48 0.79 0.43 0.14 0.05 0.01 0.01 0.08 0.16 0.14 0.12 0.11 0.12 0.13 0.15 0.15 0.15 0.13 0.13 0.10 0.07 0.06 0.05 0.05 0.05 0.05 0.06 0.05 0.07 0.10 0.09 0.10 0.11
0.01 0.03 0.12 0.41 0.76 0.90 0.85 0.44 0.33 0.31 0.28 0.39 0.45 0.36 0.31 0.33 0.25 0.20 0.19 0.16 0.06 0.01 0.01 0.03 0.11 0.13 0.11 0.11 0.12 0.12 0.13 0.11 0.11 0.11 0.10 0.08 0.06 0.06 0.06 0.05 0.05 0.07 0.07 0.07 0.08 0.10 0.08 0.07 0.09
0.01 0.05 0.19 0.43 0.46 0.51 0.51 0.30 0.27 0.33 0.42 0.60 0.69 0.46 0.37 0.43 0.28 0.15 0.12 0.10 0.07 0.03 0.02 0.04 0.09 0.11 0.11 0.11 0.11 0.11 0.10 0.09 0.09 0.09 0.09 0.07 0.06 0.06 0.06 0.06 0.07 0.08 0.08 0.09 0.10 0.12 0.11 0.09 0.08
0.02 0.09 0.22 0.29 0.19 0.20 0.27 0.20 0.27 0.37 0.65 0.77 0.79 0.60 0.47 0.42 0.29 0.20 0.10 0.08 0.07 0.04 0.03 0.06 0.09 0.11 0.11 0.11 0.11 0.10 0.09 0.09 0.08 0.08 0.08 0.06 0.06 0.06 0.07 0.08 0.08 0.09 0.11 0.12 0.12 0.13 0.13 0.12 0.11
0.02 0.11 0.21 0.16 0.08 0.10 0.13 0.11 0.18 0.30 0.54 0.74 0.75 0.75 0.68 0.53 0.42 0.28 0.15 0.08 0.06 0.04 0.04 0.06 0.12 0.14 0.14 0.13 0.13 0.12 0.11 0.10 0.09 0.09 0.08 0.07 0.07 0.08 0.08 0.10 0.11 0.11 0.14 0.14 0.14 0.14 0.14 0.16 0.16
0.02 0.08 0.15 0.10 0.06 0.07 0.09 0.10 0.20 0.36 0.56 0.73 0.86 0.90 0.75 0.52 0.41 0.29 0.19 0.17 0.18 0.06 0.04 0.07 0.13 0.15 0.16 0.16 0.16 0.15 0.13 0.12 0.11 0.10 0.09 0.09 0.09 0.09 0.10 0.12 0.14 0.13 0.15 0.14 0.14 0.13 0.14 0.16 0.18
0.02 0.03 0.07 0.07 0.04 0.05 0.08 0.13 0.24 0.38 0.49 0.78 1.03 1.02 0.74 0.65 0.52 0.35 0.34 0.29 0.46 0.23 0.10 0.09 0.10 0.14 0.17 0.20 0.19 0.17 0.15 0.14 0.13 0.12 0.10 0.10 0.09 0.09 0.10 0.14 0.16 0.17 0.18 0.16 0.15 0.16 0.17 0.19 0.20
0.00 0.01 0.02 0.02 0.01 0.03 0.07 0.14 0.25 0.37 0.64 0.90 0.89 0.93 0.94 0.71 0.62 0.57 0.58 0.51 0.56 0.41 0.26 0.19 0.19 0.24 0.23 0.22 0.21 0.21 0.19 0.16 0.14 0.12 0.10 0.10 0.10 0.14 0.18 0.19 0.20 0.23 0.26 0.26 0.25 0.27 0.29 0.30 0.29
0.00 0.01 0.02 0.01 0.01 0.03 0.10 0.19 0.26 0.32 0.52 0.69 0.76 0.73 0.58 0.57 0.70 0.76 0.74 0.71 0.73 0.65 0.57 0.48 0.40 0.36 0.38 0.36 0.30 0.32 0.31 0.30 0.25 0.26 0.25 0.25 0.31 0.39 0.51 0.47 0.51 0.47 0.47 0.50 0.49 0.50 0.53 0.53 0.42
0.00 0.00 0.01 0.00 0.00 0.03 0.09 0.18 0.30 0.37 0.63 0.97 1.04 1.09 0.77 0.78 0.92 0.92 0.88 0.77 0.86 0.98 0.86 0.83 0.70 0.52 0.45 0.45 0.58 0.70 0.68 0.70 0.66 0.71 0.69 0.71 0.74 0.73 0.67 0.80 0.88 0.92 1.00 0.99 1.00 1.14 1.01 0.78 0.60
0.00 0.00 0.00 0.00 0.00 0.01 0.04 0.10 0.14 0.32 0.73 1.16 1.22 1.21 1.02 0.99 1.07 1.11 1.12 1.16 1.20 1.35 1.14 0.90 0.85 0.78 0.76 0.84 0.86 0.92 1.03 1.12 1.21 1.26 1.24 1.32 1.16 0.99 0.94 1.17 1.32 1.30 1.30 1.21 1.47 1.67 1.28 1.22 1.29
0.00 0.00 0.00 0.00 0.00 0.01 0.03 0.10 0.19 0.34 0.77 1.04 0.95 0.83 0.85 1.06 1.22 1.32 1.60 1.76 1.77 1.75 1.65 1.51 1.27 1.19 1.18 1.10 1.01 0.98 0.97 1.07 1.16 1.26 1.34 1.50 1.54 1.43 1.45 1.58 1.47 1.45 1.47 1.64 1.69 1.82 1.65 1.58 1.56
0.00 0.00 0.00 0.00 0.01 0.01 0.05 0.14 0.27 0.39 0.67 0.64 0.55 0.62 1.00 1.26 1.44 1.66 1.85 2.00 2.08 2.31 2.26 2.47 2.10 1.78 1.60 1.37 1.16 1.02 0.97 0.88 0.88 0.98 1.21 1.40 1.53 1.62 1.72 1.56 1.41 1.25 1.52 1.78 1.80 1.64 1.77 1.80 1.89
0.00 0.00 0.01 0.02 0.01 0.02 0.05 0.10 0.33 0.45 0.56 0.62 0.59 0.83 1.30 1.77 1.91 2.08 2.31 2.61 2.76 3.06 2.98 2.95 2.86 2.35 1.93 1.61 1.34 1.14 0.94 0.94 0.95 0.98 1.07 1.26 1.40 1.48 1.54 1.48 1.37 1.30 1.46 1.65 1.67 1.64 1.84 1.94 1.94
0.00 0.03 0.10 0.09 0.05 0.05 0.06 0.19 0.43 0.59 0.60 0.79 0.87 1.08 1.57 2.09 2.13 2.38 2.54 2.87 3.17 3.52 3.66 3.63 3.46 2.97 2.57 2.26 1.82 1.38 1.16 1.04 1.07 1.07 0.99 1.03 1.13 1.17 1.28 1.30 1.25 1.28 1.34 1.38 1.35 1.38 1.57 1.55 1.48
0.01 0.08 0.23 0.18 0.09 0.08 0.13 0.52 0.72 0.65 0.59 0.86 1.11 1.34 1.76 2.27 2.37 2.64 2.94 3.28 3.72 4.10 4.37 4.35 3.97 3.56 3.01 2.54 2.18 1.79 1.55 1.36 1.19 1.07 0.91 0.78 0.83 0.89 0.98 0.95 0.97 1.02 1.06 1.06 1.04 1.06 1.18 1.27 1.38
0.03 0.08 0.19 0.19 0.14 0.12 0.19 0.63 0.67 0.43 0.57 0.84 1.16 1.46 1.71 2.03 2.49 2.99 3.43 3.80 4.43 5.26 5.59 5.25 4.50 3.93 3.26 2.59 2.25 2.07 1.92 1.68 1.42 1.27 1.05 0.86 0.77 0.80 0.84 0.81 0.83 0.78 0.79 0.81 0.77 0.85 0.97 1.06 1.13
0.03 0.06 0.14 0.21 0.16 0.21 0.31 0.41 0.51 0.55 0.72 0.93 1.13 1.30 1.55 1.81 2.24 2.88 3.35 3.84 4.60 5.64 6.17 5.88 5.09 4.15 3.34 2.83 2.51 2.31 2.04 1.71 1.41 1.27 1.10 0.88 0.75 0.71 0.69 0.64 0.61 0.55 0.57 0.62 0.66 0.76 0.83 0.86 0.91
0.03 0.06 0.13 0.21 0.16 0.24 0.32 0.42 0.56 0.71 0.93 0.95 1.00 1.07 1.24 1.55 1.95 2.51 3.07 3.55 4.13 4.76 5.18 5.00 4.27 3.57 2.88 2.35 1.85 1.63 1.48 1.28 1.08 0.99 0.86 0.77 0.68 0.62 0.56 0.48 0.47 0.42 0.41 0.44 0.45 0.53 0.61 0.64 0.71
0.04 0.07 0.13 0.17 0.14 0.14 0.25 0.50 0.64 0.73 0.88 0.83 0.83 0.77 0.93 1.33 1.91 2.57 3.12 3.34 3.25 3.36 3.44 2.94 2.59 2.24 1.80 1.56 1.30 1.07 0.97 0.82 0.68 0.62 0.57 0.47 0.46 0.48 0.44 0.43 0.40 0.38 0.38 0.37 0.39 0.45 0.50 0.52 0.58
0.07 0.09 0.09 0.15 0.16 0.21 0.35 0.66 0.84 0.76 0.72 0.62 0.62 0.73 1.19 1.60 1.98 2.43 2.57 2.55 2.44 2.33 2.16 1.80 1.58 1.58 1.39 1.26 1.09 0.88 0.80 0.71 0.59 0.49 0.46 0.39 0.33 0.33 0.36 0.38 0.39 0.39 0.34 0.33 0.35 0.36 0.38 0.40 0.42
0.07 0.06 0.04 0.04 0.12 0.34 0.50 0.89 1.03 0.90 0.80 0.55 0.56 0.88 1.41 1.71 1.96 1.90 1.50 1.32 1.46 1.51 1.45 1.49 1.45 1.35 1.19 1.15 0.90 0.66 0.52 0.47 0.41 0.39 0.37 0.36 0.30 0.26 0.26 0.28 0.33 0.33 0.33 0.33 0.26 0.27 0.32 0.34 0.31
0.04 0.04 0.03 0.05 0.15 0.39 0.65 1.05 1.22 0.96 0.76 0.52 0.42 0.52 0.89 1.13 1.03 0.79 0.65 0.67 0.87 1.07 1.23 1.46 1.46 1.27 1.08 1.01 0.92 0.86 0.73 0.64 0.53 0.47 0.45 0.40 0.37 0.31 0.24 0.22 0.26 0.30 0.36 0.40 0.35 0.33 0.31 0.30 0.28
0.03 0.04 0.10 0.20 0.37 0.82 0.86 0.94 1.15 0.95 0.73 0.53 0.34 0.37 0.61 0.64 0.45 0.43 0.48 0.61 0.77 0.91 1.00 1.13 1.19 1.25 1.19 1.12 1.00 0.98 0.90 0.80 0.68 0.56 0.47 0.43 0.39 0.38 0.34 0.32 0.35 0.37 0.35 0.36 0.37 0.40 0.39 0.37 0.34
0.03 0.05 0.25 0.60 0.89 1.00 0.71 0.85 1.14 0.75 0.48 0.35 0.23 0.20 0.22 0.24 0.29 0.41 0.44 0.53 0.56 0.66 0.69 0.74 0.77 0.88 0.94 0.97 0.95 0.95 0.91 0.83 0.72 0.59 0.47 0.44 0.37 0.34 0.34 0.34 0.38 0.40 0.39 0.36 0.34 0.34 0.40 0.46 0.46
0.04 0.03 0.10 0.21 0.31 0.49 0.64 1.04 1.10 0.68 0.33 0.18 0.11 0.08 0.09 0.11 0.13 0.15 0.20 0.24 0.30 0.41 0.50 0.53 0.57 0.58 0.57 0.57 0.62 0.67 0.68 0.65 0.63 0.63 0.48 0.41 0.41 0.38 0.34 0.30 0.30 0.31 0.33 0.34 0.31 0.27 0.28 0.35 0.44
0.03 0.03 0.04 0.05 0.08 0.30 0.71 0.97 0.83 0.47 0.27 0.17 0.12 0.08 0.06 0.06 0.05 0.06 0.09 0.14 0.21 0.25 0.33 0.42 0.43 0.43 0.43 0.44 0.45 0.43 0.46 0.50 0.51 0.49 0.41 0.35 0.38 0.37 0.34 0.30 0.26 0.25 0.26 0.29 0.29 0.27 0.27 0.28 0.29
0.04 0.03 0.03 0.05 0.10 0.23 0.53 0.97 1.07 0.66 0.37 0.22 0.16 0.11 0.07 0.07 0.05 0.04 0.06 0.09 0.14 0.17 0.26 0.34 0.35 0.33 0.37 0.41 0.41 0.34 0.38 0.42 0.41 0.36 0.36 0.34 0.32 0.32 0.31 0.27 0.24 0.21 0.20 0.21 0.25 0.27 0.30 0.34 0.37
0.05 0.04 0.05 0.06 0.07 0.15 0.38 0.60 0.55 0.50 0.35 0.23 0.17 0.10 0.07 0.07 0.07 0.05 0.05 0.07 0.09 0.14 0.19 0.24 0.28 0.28 0.29 0.31 0.34 0.34 0.35 0.38 0.37 0.35 0.37 0.37 0.35 0.33 0.31 0.29 0.26 0.20 0.19 0.21 0.24 0.25 0.30 0.35 0.44
0.07 0.07 0.07 0.08 0.08 0.10 0.19 0.30 0.30 0.29 0.33 0.33 0.20 0.12 0.10 0.13 0.11 0.07 0.07 0.10 0.08 0.11 0.16 0.20 0.20 0.22 0.23 0.25 0.30 0.29 0.31 0.33 0.35 0.33 0.34 0.37 0.40 0.40 0.37 0.34 0.32 0.26 0.22 0.24 0.26 0.25 0.28 0.36 0.45